Time,TemperatureF,DewpointF,PressureIn,WindDirection,WindDirectionDegrees,WindSpeedMPH,WindSpeedGustMPH,Humidity,HourlyPrecipIn,Conditions,Clouds,dailyrainin,SoftwareType,DateUTC
2013-03-17 00:02:00,62.3,40.1,29.94,WNW,303,5.0,16.0,44,0.00,,,-99.99,Weather View 32 v60,2013-03-17 07:02:00,
2013-03-17 00:12:00,62.1,39.9,29.95,North,0,1.0,16.0,44,0.00,,,-99.99,Weather View 32 v60,2013-03-17 07:12:00,
2013-03-17 00:22:00,61.8,40.8,29.95,East,92,9.0,16.0,46,0.00,,,-99.99,Weather View 32 v60,2013-03-17 07:22:00,
2013-03-17 00:27:00,61.4,40.4,29.96,SSW,196,1.0,16.0,46,0.00,,,-99.99,Weather View 32 v60,2013-03-17 07:27:00,
2013-03-17 00:32:00,61.1,40.1,29.95,North,3,0.0,16.0,46,0.00,,,-99.99,Weather View 32 v60,2013-03-17 07:32:00,
2013-03-17 00:41:00,60.8,40.4,29.95,North,355,2.0,16.0,47,0.00,,,-99.99,Weather View 32 v60,2013-03-17 07:41:00,
2013-03-17 00:47:00,60.2,39.8,29.95,NE,40,5.0,16.0,47,0.00,,,-99.99,Weather View 32 v60,2013-03-17 07:47:00,
2013-03-17 00:52:00,60.1,39.8,29.94,East,86,5.0,16.0,47,0.00,,,-99.99,Weather View 32 v60,2013-03-17 07:52:00,
2013-03-17 01:02:00,60.1,39.2,29.94,ESE,103,4.0,16.0,46,0.00,,,-99.99,Weather View 32 v60,2013-03-17 08:02:00,
2013-03-17 01:07:00,60.3,39.4,29.93,NE,56,8.0,16.0,46,0.00,,,-99.99,Weather View 32 v60,2013-03-17 08:07:00,
2013-03-17 01:17:00,60.9,39.4,29.94,NE,52,11.0,18.0,45,0.00,,,-99.99,Weather View 32 v60,2013-03-17 08:17:00,
2013-03-17 01:27:00,60.9,39.4,29.95,NNE,24,0.0,18.0,45,0.00,,,-99.99,Weather View 32 v60,2013-03-17 08:27:00,
2013-03-17 01:32:00,60.8,39.8,29.95,NW,325,4.0,18.0,46,0.00,,,-99.99,Weather View 32 v60,2013-03-17 08:32:00,
2013-03-17 01:37:00,60.6,39.1,29.94,ENE,59,3.0,18.0,45,0.00,,,-99.99,Weather View 32 v60,2013-03-17 08:37:00,
2013-03-17 01:42:00,60.4,39.5,29.94,NE,34,7.0,18.0,46,0.00,,,-99.99,Weather View 32 v60,2013-03-17 08:42:00,
2013-03-17 01:47:00,60.4,39.5,29.95,North,0,4.0,18.0,46,0.00,,,-99.99,Weather View 32 v60,2013-03-17 08:47:00,
2013-03-17 01:57:00,60.2,39.3,29.95,NNE,18,7.0,18.0,46,0.00,,,-99.99,Weather View 32 v60,2013-03-17 08:57:00,
2013-03-17 02:02:00,60.1,39.2,29.95,NE,40,8.0,18.0,46,0.00,,,-99.99,Weather View 32 v60,2013-03-17 09:02:00,
2013-03-17 02:12:00,59.8,39.5,29.95,North,6,0.0,17.0,47,0.00,,,-99.99,Weather View 32 v60,2013-03-17 09:12:00,
2013-03-17 02:17:00,59.5,39.8,29.96,NNE,25,0.0,16.0,48,0.00,,,-99.99,Weather View 32 v60,2013-03-17 09:17:00,
2013-03-17 02:27:00,58.7,40.1,29.95,ENE,70,4.0,15.0,50,0.00,,,-99.99,Weather View 32 v60,2013-03-17 09:27:00,
2013-03-17 02:37:00,57.9,40.3,29.96,NNE,16,2.0,15.0,52,0.00,,,-99.99,Weather View 32 v60,2013-03-17 09:37:00,
2013-03-17 02:42:00,57.5,40.0,29.96,North,0,0.0,12.0,52,0.00,,,-99.99,Weather View 32 v60,2013-03-17 09:42:00,
2013-03-17 02:52:00,56.8,40.3,29.96,North,0,0.0,10.0,54,0.00,,,-99.99,Weather View 32 v60,2013-03-17 09:52:00,
2013-03-17 03:02:00,55.9,39.9,29.96,East,96,0.0,9.0,55,0.00,,,-99.99,Weather View 32 v60,2013-03-17 10:02:00,
2013-03-17 03:07:00,55.7,38.3,29.96,SSE,147,2.0,9.0,52,0.00,,,-99.99,Weather View 32 v60,2013-03-17 10:07:00,
2013-03-17 03:17:00,56.2,38.8,29.96,SSE,159,0.0,9.0,52,0.00,,,-99.99,Weather View 32 v60,2013-03-17 10:17:00,
2013-03-17 03:22:00,56.2,38.8,29.96,North,356,0.0,9.0,52,0.00,,,-99.99,Weather View 32 v60,2013-03-17 10:22:00,
2013-03-17 03:27:00,56.4,39.0,29.96,NNE,23,0.0,9.0,52,0.00,,,-99.99,Weather View 32 v60,2013-03-17 10:27:00,
2013-03-17 03:37:00,56.3,38.9,29.96,NW,324,4.0,9.0,52,0.00,,,-99.99,Weather View 32 v60,2013-03-17 10:37:00,
2013-03-17 03:43:00,56.2,39.3,29.96,North,349,0.0,9.0,53,0.00,,,-99.99,Weather View 32 v60,2013-03-17 10:43:00,
2013-03-17 03:52:00,55.9,39.0,29.95,NW,323,4.0,11.0,53,0.00,,,-99.99,Weather View 32 v60,2013-03-17 10:52:00,
2013-03-17 03:57:00,55.8,38.4,29.95,WSW,248,2.0,11.0,52,0.00,,,-99.99,Weather View 32 v60,2013-03-17 10:57:00,
2013-03-17 04:07:00,55.7,38.3,29.95,SE,128,4.0,11.0,52,0.00,,,-99.99,Weather View 32 v60,2013-03-17 11:07:00,
2013-03-17 04:12:00,55.7,38.3,29.94,South,190,2.0,11.0,52,0.00,,,-99.99,Weather View 32 v60,2013-03-17 11:12:00,
2013-03-17 04:17:00,55.6,37.7,29.94,ENE,57,3.0,11.0,51,0.00,,,-99.99,Weather View 32 v60,2013-03-17 11:17:00,
2013-03-17 04:27:00,55.3,38.9,29.95,North,0,0.0,11.0,54,0.00,,,-99.99,Weather View 32 v60,2013-03-17 11:27:00,
2013-03-17 04:37:00,54.7,37.9,29.95,North,359,0.0,11.0,53,0.00,,,-99.99,Weather View 32 v60,2013-03-17 11:37:00,
2013-03-17 04:42:00,54.5,38.2,29.95,WSW,244,0.0,11.0,54,0.00,,,-99.99,Weather View 32 v60,2013-03-17 11:42:00,
2013-03-17 04:52:00,53.7,38.3,29.95,ESE,120,0.0,11.0,56,0.00,,,-99.99,Weather View 32 v60,2013-03-17 11:52:00,
2013-03-17 05:02:00,52.8,37.5,29.95,NE,37,0.0,11.0,56,0.00,,,-99.99,Weather View 32 v60,2013-03-17 12:02:00,
2013-03-17 05:07:00,52.6,37.8,29.95,WSW,258,0.0,9.0,57,0.00,,,-99.99,Weather View 32 v60,2013-03-17 12:07:00,
2013-03-17 05:17:00,52.2,37.8,29.95,NNE,16,0.0,9.0,58,0.00,,,-99.99,Weather View 32 v60,2013-03-17 12:17:00,
2013-03-17 05:27:00,51.6,38.1,29.95,NNE,17,0.0,9.0,60,0.00,,,-99.99,Weather View 32 v60,2013-03-17 12:27:00,
2013-03-17 05:32:00,51.4,37.5,29.95,NNE,17,0.0,7.0,59,0.00,,,-99.99,Weather View 32 v60,2013-03-17 12:32:00,
2013-03-17 05:37:00,51.0,38.0,29.95,NNE,17,0.0,3.0,61,0.00,,,-99.99,Weather View 32 v60,2013-03-17 12:37:00,
2013-03-17 05:42:00,50.7,37.7,29.95,NNE,17,0.0,3.0,61,0.00,,,-99.99,Weather View 32 v60,2013-03-17 12:42:00,
2013-03-17 05:52:00,50.1,37.6,29.95,NNE,17,0.0,3.0,62,0.00,,,-99.99,Weather View 32 v60,2013-03-17 12:52:00,
2013-03-17 05:57:00,49.8,37.3,29.95,NNE,17,0.0,3.0,62,0.00,,,-99.99,Weather View 32 v60,2013-03-17 12:57:00,
2013-03-17 06:07:00,49.3,37.2,29.95,NNE,17,0.0,2.0,63,0.00,,,-99.99,Weather View 32 v60,2013-03-17 13:07:00,
2013-03-17 06:12:00,49.2,37.1,29.95,NNE,17,0.0,3.0,63,0.00,,,-99.99,Weather View 32 v60,2013-03-17 13:12:00,
2013-03-17 06:22:00,48.8,37.1,29.95,NNE,17,0.0,3.0,64,0.00,,,-99.99,Weather View 32 v60,2013-03-17 13:22:00,
2013-03-17 06:27:00,48.5,36.9,29.96,NNE,17,0.0,3.0,64,0.00,,,-99.99,Weather View 32 v60,2013-03-17 13:27:00,
2013-03-17 06:37:00,48.2,37.0,29.96,NNE,17,0.0,3.0,65,0.00,,,-99.99,Weather View 32 v60,2013-03-17 13:37:00,
2013-03-17 06:42:00,48.0,36.8,29.96,NNE,17,0.0,3.0,65,0.00,,,-99.99,Weather View 32 v60,2013-03-17 13:42:00,
2013-03-17 06:52:00,47.7,36.9,29.96,SSE,162,0.0,3.0,66,0.00,,,-99.99,Weather View 32 v60,2013-03-17 13:52:00,
2013-03-17 07:02:00,47.4,37.0,29.97,SSE,162,0.0,3.0,67,0.00,,,-99.99,Weather View 32 v60,2013-03-17 14:02:00,
2013-03-17 07:07:00,47.3,37.3,29.97,SSE,162,0.0,3.0,68,0.00,,,-99.99,Weather View 32 v60,2013-03-17 14:07:00,
2013-03-17 07:17:00,46.9,37.2,29.97,SSE,162,0.0,2.0,69,0.00,,,-99.99,Weather View 32 v60,2013-03-17 14:17:00,
2013-03-17 07:22:00,46.7,37.1,29.97,SSE,162,0.0,3.0,69,0.00,,,-99.99,Weather View 32 v60,2013-03-17 14:22:00,
2013-03-17 07:32:00,46.5,36.5,29.98,SSE,162,0.0,3.0,68,0.00,,,-99.99,Weather View 32 v60,2013-03-17 14:32:00,
2013-03-17 07:37:00,46.4,36.4,29.98,SSE,162,0.0,3.0,68,0.00,,,-99.99,Weather View 32 v60,2013-03-17 14:37:00,
2013-03-17 07:45:00,46.4,36.8,29.98,SSE,162,1.0,3.0,69,0.00,,,-99.99,Weather View 32 v60,2013-03-17 14:45:00,
2013-03-17 07:52:00,46.5,36.9,29.98,SSE,162,1.0,3.0,69,0.00,,,-99.99,Weather View 32 v60,2013-03-17 14:52:00,
2013-03-17 07:57:00,46.7,36.7,29.98,SSE,162,1.0,3.0,68,0.00,,,-99.99,Weather View 32 v60,2013-03-17 14:57:00,
2013-03-17 08:07:00,47.5,37.4,29.99,SSE,162,0.0,4.0,68,0.00,,,-99.99,Weather View 32 v60,2013-03-17 15:07:00,
2013-03-17 08:12:00,47.8,37.4,29.99,SSE,162,0.0,4.0,67,0.00,,,-99.99,Weather View 32 v60,2013-03-17 15:12:00,
2013-03-17 08:22:00,48.3,37.8,29.99,SSE,162,0.0,4.0,67,0.00,,,-99.99,Weather View 32 v60,2013-03-17 15:22:00,
2013-03-17 08:32:00,48.3,38.2,29.99,SSE,162,0.0,4.0,68,0.00,,,-99.99,Weather View 32 v60,2013-03-17 15:32:00,
2013-03-17 08:42:00,48.2,38.5,29.99,SSE,162,0.0,4.0,69,0.00,,,-99.99,Weather View 32 v60,2013-03-17 15:42:00,
2013-03-17 08:52:00,47.9,38.6,29.99,SSE,162,0.0,4.0,70,0.00,,,-99.99,Weather View 32 v60,2013-03-17 15:52:00,
2013-03-17 09:02:00,47.9,38.9,29.99,SSE,162,0.0,4.0,71,0.00,,,-99.99,Weather View 32 v60,2013-03-17 16:02:00,
2013-03-17 09:07:00,48.1,39.5,30.00,SSE,162,0.0,3.0,72,0.00,,,-99.99,Weather View 32 v60,2013-03-17 16:07:00,
2013-03-17 09:17:00,48.4,40.1,30.00,SSE,162,0.0,2.0,73,0.00,,,-99.99,Weather View 32 v60,2013-03-17 16:17:00,
2013-03-17 09:22:00,48.5,40.2,30.00,SSE,162,0.0,1.0,73,0.00,,,-99.99,Weather View 32 v60,2013-03-17 16:22:00,
2013-03-17 09:27:00,48.6,40.3,30.00,SSE,162,0.0,0.0,73,0.00,,,-99.99,Weather View 32 v60,2013-03-17 16:27:00,
2013-03-17 09:37:00,48.8,40.5,30.00,SSE,162,0.0,0.0,73,0.00,,,-99.99,Weather View 32 v60,2013-03-17 16:37:00,
2013-03-17 09:47:00,49.1,40.8,30.00,SSE,162,0.0,0.0,73,0.00,,,-99.99,Weather View 32 v60,2013-03-17 16:47:00,
2013-03-17 09:57:00,49.5,40.8,30.00,SSE,162,0.0,0.0,72,0.00,,,-99.99,Weather View 32 v60,2013-03-17 16:57:00,
2013-03-17 10:07:00,49.9,40.9,30.01,SSE,162,0.0,0.0,71,0.00,,,-99.99,Weather View 32 v60,2013-03-17 17:07:00,
2013-03-17 10:17:00,50.7,40.1,30.01,SSE,156,0.0,0.0,67,0.00,,,-99.99,Weather View 32 v60,2013-03-17 17:17:00,
2013-03-17 10:27:00,51.9,39.7,30.01,North,0,0.0,9.0,63,0.00,,,-99.99,Weather View 32 v60,2013-03-17 17:27:00,
2013-03-17 10:32:00,52.6,39.9,30.01,NNE,20,4.0,9.0,62,0.00,,,-99.99,Weather View 32 v60,2013-03-17 17:32:00,
2013-03-17 10:42:00,53.7,40.1,30.01,NE,43,9.0,9.0,60,0.00,,,-99.99,Weather View 32 v60,2013-03-17 17:42:00,
2013-03-17 10:47:00,54.2,39.7,30.00,NE,44,0.0,9.0,58,0.00,,,-99.99,Weather View 32 v60,2013-03-17 17:47:00,
2013-03-17 10:57:00,55.1,38.7,30.01,North,0,2.0,9.0,54,0.00,,,-99.99,Weather View 32 v60,2013-03-17 17:57:00,
2013-03-17 11:07:00,56.2,37.8,30.01,North,356,7.0,10.0,50,0.00,,,-99.99,Weather View 32 v60,2013-03-17 18:07:00,
2013-03-17 11:12:00,56.5,38.0,30.00,North,0,1.0,10.0,50,0.00,,,-99.99,Weather View 32 v60,2013-03-17 18:12:00,
2013-03-17 11:22:00,57.2,38.2,30.00,North,5,4.0,10.0,49,0.00,,,-99.99,Weather View 32 v60,2013-03-17 18:22:00,
2013-03-17 11:27:00,57.5,37.9,30.00,North,5,0.0,10.0,48,0.00,,,-99.99,Weather View 32 v60,2013-03-17 18:27:00,
2013-03-17 11:37:00,58.0,37.8,30.00,North,0,0.0,10.0,47,0.00,,,-99.99,Weather View 32 v60,2013-03-17 18:37:00,
2013-03-17 11:47:00,58.6,38.9,29.99,NNW,335,2.0,10.0,48,0.00,,,-99.99,Weather View 32 v60,2013-03-17 18:47:00,
2013-03-17 11:52:00,58.9,39.2,29.99,North,0,4.0,10.0,48,0.00,,,-99.99,Weather View 32 v60,2013-03-17 18:52:00,
2013-03-17 12:02:00,59.5,39.2,29.99,North,351,0.0,10.0,47,0.00,,,-99.99,Weather View 32 v60,2013-03-17 19:02:00,
2013-03-17 12:12:00,59.9,39.6,29.98,SSW,209,0.0,9.0,47,0.00,,,-99.99,Weather View 32 v60,2013-03-17 19:12:00,
2013-03-17 12:17:00,60.2,39.3,29.98,South,175,0.0,9.0,46,0.00,,,-99.99,Weather View 32 v60,2013-03-17 19:17:00,
2013-03-17 12:27:00,60.9,39.4,29.98,North,349,0.0,9.0,45,0.00,,,-99.99,Weather View 32 v60,2013-03-17 19:27:00,
2013-03-17 12:32:00,61.2,40.2,29.98,North,351,3.0,9.0,46,0.00,,,-99.99,Weather View 32 v60,2013-03-17 19:32:00,
2013-03-17 12:42:00,61.8,40.2,29.98,NNW,345,5.0,6.0,45,0.00,,,-99.99,Weather View 32 v60,2013-03-17 19:42:00,
2013-03-17 12:48:00,62.0,39.2,29.97,North,357,3.0,6.0,43,0.00,,,-99.99,Weather View 32 v60,2013-03-17 19:48:00,
2013-03-17 12:57:00,62.5,39.0,29.97,North,357,2.0,6.0,42,0.00,,,-99.99,Weather View 32 v60,2013-03-17 19:57:00,
2013-03-17 13:07:00,63.2,38.4,29.97,North,0,2.0,6.0,40,0.00,,,-99.99,Weather View 32 v60,2013-03-17 20:07:00,
2013-03-17 13:17:00,63.9,38.4,29.97,North,359,3.0,7.0,39,0.00,,,-99.99,Weather View 32 v60,2013-03-17 20:17:00,
2013-03-17 13:22:00,64.2,38.0,29.96,North,359,0.0,7.0,38,0.00,,,-99.99,Weather View 32 v60,2013-03-17 20:22:00,
2013-03-17 13:32:00,64.8,39.2,29.96,NNW,339,3.0,7.0,39,0.00,,,-99.99,Weather View 32 v60,2013-03-17 20:32:00,
2013-03-17 13:37:00,65.2,38.2,29.96,North,359,8.0,8.0,37,0.00,,,-99.99,Weather View 32 v60,2013-03-17 20:37:00,
2013-03-17 13:47:00,65.9,37.4,29.96,SW,229,0.0,8.0,35,0.00,,,-99.99,Weather View 32 v60,2013-03-17 20:47:00,
2013-03-17 13:57:00,66.6,37.3,29.95,WNW,301,2.0,8.0,34,0.00,,,-99.99,Weather View 32 v60,2013-03-17 20:57:00,
2013-03-17 14:07:00,66.9,37.5,29.95,NNW,332,5.0,8.0,34,0.00,,,-99.99,Weather View 32 v60,2013-03-17 21:07:00,
2013-03-17 14:12:00,67.0,36.9,29.94,NNW,338,4.0,8.0,33,0.00,,,-99.99,Weather View 32 v60,2013-03-17 21:12:00,
2013-03-17 14:17:00,67.1,37.0,29.94,North,0,0.0,8.0,33,0.00,,,-99.99,Weather View 32 v60,2013-03-17 21:17:00,
2013-03-17 14:27:00,67.3,37.9,29.93,North,0,1.0,8.0,34,0.00,,,-99.99,Weather View 32 v60,2013-03-17 21:27:00,
2013-03-17 14:42:00,68.0,38.5,29.92,North,0,1.0,7.0,34,0.00,,,-99.99,Weather View 32 v60,2013-03-17 21:42:00,
2013-03-17 14:50:00,68.3,38.8,29.92,SSE,153,2.0,9.0,34,0.00,,,-99.99,Weather View 32 v60,2013-03-17 21:50:00,
2013-03-17 14:57:00,69.0,38.6,29.92,NW,315,2.0,9.0,33,0.00,,,-99.99,Weather View 32 v60,2013-03-17 21:57:00,
2013-03-17 15:02:00,69.3,40.4,29.91,East,82,1.0,9.0,35,0.00,,,-99.99,Weather View 32 v60,2013-03-17 22:02:00,
2013-03-17 15:07:00,69.7,40.0,29.91,North,1,4.0,9.0,34,0.00,,,-99.99,Weather View 32 v60,2013-03-17 22:07:00,
2013-03-17 15:17:00,69.9,40.2,29.91,North,1,2.0,9.0,34,0.00,,,-99.99,Weather View 32 v60,2013-03-17 22:17:00,
2013-03-17 15:27:00,69.9,43.7,29.91,NNW,331,4.0,12.0,39,0.00,,,-99.99,Weather View 32 v60,2013-03-17 22:27:00,
2013-03-17 15:32:00,69.6,44.1,29.91,NNE,19,2.0,12.0,40,0.00,,,-99.99,Weather View 32 v60,2013-03-17 22:32:00,
2013-03-17 15:42:00,69.3,45.2,29.91,North,0,2.0,12.0,42,0.00,,,-99.99,Weather View 32 v60,2013-03-17 22:42:00,
2013-03-17 15:47:00,69.2,45.7,29.91,NNW,343,4.0,12.0,43,0.00,,,-99.99,Weather View 32 v60,2013-03-17 22:47:00,
2013-03-17 15:57:00,69.0,45.5,29.91,North,0,1.0,12.0,43,0.00,,,-99.99,Weather View 32 v60,2013-03-17 22:57:00,
2013-03-17 16:07:00,68.8,47.1,29.91,SSE,161,3.0,12.0,46,0.00,,,-99.99,Weather View 32 v60,2013-03-17 23:07:00,
2013-03-17 16:12:00,68.8,46.5,29.91,SSE,161,3.0,12.0,45,0.00,,,-99.99,Weather View 32 v60,2013-03-17 23:12:00,
2013-03-17 16:22:00,69.2,46.3,29.91,SSE,167,4.0,12.0,44,0.00,,,-99.99,Weather View 32 v60,2013-03-17 23:22:00,
2013-03-17 16:32:00,68.9,46.0,29.92,SSE,159,6.0,10.0,44,0.00,,,-99.99,Weather View 32 v60,2013-03-17 23:32:00,
2013-03-17 16:37:00,68.7,45.8,29.91,SSE,155,8.0,10.0,44,0.00,,,-99.99,Weather View 32 v60,2013-03-17 23:37:00,
2013-03-17 16:42:00,68.2,44.2,29.92,South,177,6.0,10.0,42,0.00,,,-99.99,Weather View 32 v60,2013-03-17 23:42:00,
2013-03-17 16:52:00,67.1,43.8,29.92,South,183,3.0,11.0,43,0.00,,,-99.99,Weather View 32 v60,2013-03-17 23:52:00,
2013-03-17 17:02:00,65.7,42.5,29.91,NE,55,2.0,11.0,43,0.00,,,-99.99,Weather View 32 v60,2013-03-18 00:02:00,
2013-03-17 17:12:00,64.5,42.0,29.92,South,169,2.0,11.0,44,0.00,,,-99.99,Weather View 32 v60,2013-03-18 00:12:00,
2013-03-17 17:17:00,64.1,41.7,29.92,North,0,2.0,11.0,44,0.00,,,-99.99,Weather View 32 v60,2013-03-18 00:17:00,
2013-03-17 17:27:00,63.5,41.7,29.92,SSE,155,2.0,11.0,45,0.00,,,-99.99,Weather View 32 v60,2013-03-18 00:27:00,
2013-03-17 17:32:00,63.0,41.3,29.92,SSE,164,4.0,11.0,45,0.00,,,-99.99,Weather View 32 v60,2013-03-18 00:32:00,
2013-03-17 17:42:00,62.2,40.0,29.91,ENE,75,0.0,11.0,44,0.00,,,-99.99,Weather View 32 v60,2013-03-18 00:42:00,
2013-03-17 17:51:00,61.9,39.7,29.91,North,0,0.0,9.0,44,0.00,,,-99.99,Weather View 32 v60,2013-03-18 00:51:00,
2013-03-17 17:57:00,61.5,38.7,29.91,North,0,0.0,7.0,43,0.00,,,-99.99,Weather View 32 v60,2013-03-18 00:57:00,
2013-03-17 18:07:00,61.0,37.1,29.91,North,0,0.0,7.0,41,0.00,,,-99.99,Weather View 32 v60,2013-03-18 01:07:00,
2013-03-17 18:17:00,60.9,41.0,29.90,North,0,0.0,7.0,48,0.00,,,-99.99,Weather View 32 v60,2013-03-18 01:17:00,
2013-03-17 18:22:00,60.8,40.9,29.90,North,0,0.0,7.0,48,0.00,,,-99.99,Weather View 32 v60,2013-03-18 01:22:00,
2013-03-17 18:27:00,60.6,42.3,29.90,North,0,0.0,5.0,51,0.00,,,-99.99,Weather View 32 v60,2013-03-18 01:27:00,
2013-03-17 18:37:00,60.0,41.8,29.90,North,0,0.0,5.0,51,0.00,,,-99.99,Weather View 32 v60,2013-03-18 01:37:00,
2013-03-17 18:42:00,59.7,41.5,29.90,North,0,0.0,5.0,51,0.00,,,-99.99,Weather View 32 v60,2013-03-18 01:42:00,
2013-03-17 18:47:00,59.4,41.7,29.90,North,0,0.0,4.0,52,0.00,,,-99.99,Weather View 32 v60,2013-03-18 01:47:00,
2013-03-17 18:52:00,59.0,42.3,29.90,North,0,0.0,4.0,54,0.00,,,-99.99,Weather View 32 v60,2013-03-18 01:52:00,
2013-03-17 19:02:00,58.2,42.1,29.90,North,0,0.0,0.0,55,0.00,,,-99.99,Weather View 32 v60,2013-03-18 02:02:00,
2013-03-17 19:07:00,57.8,41.7,29.90,North,0,0.0,0.0,55,0.00,,,-99.99,Weather View 32 v60,2013-03-18 02:07:00,
2013-03-17 19:12:00,57.4,41.8,29.90,North,0,0.0,0.0,56,0.00,,,-99.99,Weather View 32 v60,2013-03-18 02:12:00,
2013-03-17 19:17:00,56.9,41.3,29.90,North,0,0.0,0.0,56,0.00,,,-99.99,Weather View 32 v60,2013-03-18 02:17:00,
2013-03-17 19:22:00,56.5,41.9,29.90,North,0,0.0,0.0,58,0.00,,,-99.99,Weather View 32 v60,2013-03-18 02:22:00,
2013-03-17 19:27:00,55.9,41.3,29.90,North,0,0.0,0.0,58,0.00,,,-99.99,Weather View 32 v60,2013-03-18 02:27:00,
2013-03-17 19:32:00,55.5,40.9,29.90,North,0,0.0,0.0,58,0.00,,,-99.99,Weather View 32 v60,2013-03-18 02:32:00,
2013-03-17 19:37:00,55.0,40.9,29.90,North,0,0.0,0.0,59,0.00,,,-99.99,Weather View 32 v60,2013-03-18 02:37:00,
2013-03-17 19:42:00,54.6,41.0,29.90,North,0,0.0,0.0,60,0.00,,,-99.99,Weather View 32 v60,2013-03-18 02:42:00,
2013-03-17 19:47:00,54.2,40.6,29.90,North,0,0.0,0.0,60,0.00,,,-99.99,Weather View 32 v60,2013-03-18 02:47:00,
2013-03-17 19:52:00,53.9,40.3,29.90,North,0,0.0,0.0,60,0.00,,,-99.99,Weather View 32 v60,2013-03-18 02:52:00,
2013-03-17 20:02:00,53.4,40.3,29.90,North,0,0.0,0.0,61,0.00,,,-99.99,Weather View 32 v60,2013-03-18 03:02:00,
2013-03-17 20:07:00,53.1,40.0,29.90,North,0,0.0,0.0,61,0.00,,,-99.99,Weather View 32 v60,2013-03-18 03:07:00,
2013-03-17 20:12:00,52.7,40.0,29.90,North,0,0.0,0.0,62,0.00,,,-99.99,Weather View 32 v60,2013-03-18 03:12:00,
2013-03-17 20:17:00,52.5,40.2,29.91,North,0,0.0,0.0,63,0.00,,,-99.99,Weather View 32 v60,2013-03-18 03:17:00,
2013-03-17 20:22:00,52.3,40.1,29.91,North,0,0.0,0.0,63,0.00,,,-99.99,Weather View 32 v60,2013-03-18 03:22:00,
2013-03-17 20:27:00,52.2,40.0,29.90,North,0,0.0,0.0,63,0.00,,,-99.99,Weather View 32 v60,2013-03-18 03:27:00,
2013-03-17 20:32:00,52.0,40.2,29.91,North,0,0.0,0.0,64,0.00,,,-99.99,Weather View 32 v60,2013-03-18 03:32:00,
2013-03-17 20:37:00,51.8,40.0,29.91,North,0,0.0,0.0,64,0.00,,,-99.99,Weather View 32 v60,2013-03-18 03:37:00,
2013-03-17 20:42:00,51.6,39.8,29.91,North,0,0.0,0.0,64,0.00,,,-99.99,Weather View 32 v60,2013-03-18 03:42:00,
2013-03-17 20:47:00,51.5,39.7,29.91,North,0,0.0,0.0,64,0.00,,,-99.99,Weather View 32 v60,2013-03-18 03:47:00,
2013-03-17 20:52:00,51.5,40.1,29.91,North,0,0.0,0.0,65,0.00,,,-99.99,Weather View 32 v60,2013-03-18 03:52:00,
2013-03-17 20:57:00,51.3,39.5,29.91,North,0,0.0,0.0,64,0.00,,,-99.99,Weather View 32 v60,2013-03-18 03:57:00,
2013-03-17 21:02:00,51.2,39.8,29.92,North,0,0.0,0.0,65,0.00,,,-99.99,Weather View 32 v60,2013-03-18 04:02:00,
2013-03-17 21:07:00,51.2,39.8,29.91,North,0,0.0,0.0,65,0.00,,,-99.99,Weather View 32 v60,2013-03-18 04:07:00,
2013-03-17 21:12:00,51.1,39.7,29.91,North,0,0.0,0.0,65,0.00,,,-99.99,Weather View 32 v60,2013-03-18 04:12:00,
2013-03-17 21:17:00,51.0,39.6,29.91,North,0,0.0,0.0,65,0.00,,,-99.99,Weather View 32 v60,2013-03-18 04:17:00,
2013-03-17 21:22:00,50.9,39.9,29.92,North,0,0.0,0.0,66,0.00,,,-99.99,Weather View 32 v60,2013-03-18 04:22:00,
2013-03-17 21:27:00,50.9,39.9,29.92,North,0,0.0,0.0,66,0.00,,,-99.99,Weather View 32 v60,2013-03-18 04:27:00,
2013-03-17 21:32:00,50.9,39.9,29.92,North,0,0.0,0.0,66,0.00,,,-99.99,Weather View 32 v60,2013-03-18 04:32:00,
2013-03-17 21:37:00,50.7,39.7,29.92,North,0,0.0,0.0,66,0.00,,,-99.99,Weather View 32 v60,2013-03-18 04:37:00,
2013-03-17 21:42:00,50.6,39.6,29.92,North,0,0.0,0.0,66,0.00,,,-99.99,Weather View 32 v60,2013-03-18 04:42:00,
2013-03-17 21:47:00,50.4,39.8,29.92,North,0,0.0,0.0,67,0.00,,,-99.99,Weather View 32 v60,2013-03-18 04:47:00,
2013-03-17 21:52:00,50.2,39.6,29.93,North,0,0.0,0.0,67,0.00,,,-99.99,Weather View 32 v60,2013-03-18 04:52:00,
2013-03-17 22:02:00,49.7,39.2,29.93,North,0,0.0,0.0,67,0.00,,,-99.99,Weather View 32 v60,2013-03-18 05:02:00,
2013-03-17 22:07:00,49.5,39.0,29.93,North,0,0.0,0.0,67,0.00,,,-99.99,Weather View 32 v60,2013-03-18 05:07:00,
2013-03-17 22:17:00,49.0,39.3,29.93,North,0,0.0,0.0,69,0.00,,,-99.99,Weather View 32 v60,2013-03-18 05:17:00,
2013-03-17 22:27:00,48.5,39.1,29.93,North,0,0.0,0.0,70,0.00,,,-99.99,Weather View 32 v60,2013-03-18 05:27:00,
2013-03-17 22:32:00,48.4,38.7,29.93,North,0,0.0,0.0,69,0.00,,,-99.99,Weather View 32 v60,2013-03-18 05:32:00,
2013-03-17 22:37:00,48.3,38.6,29.93,North,0,0.0,0.0,69,0.00,,,-99.99,Weather View 32 v60,2013-03-18 05:37:00,
2013-03-17 22:42:00,48.2,38.5,29.92,North,0,0.0,0.0,69,0.00,,,-99.99,Weather View 32 v60,2013-03-18 05:42:00,
2013-03-17 22:47:00,47.9,38.6,29.93,North,0,0.0,0.0,70,0.00,,,-99.99,Weather View 32 v60,2013-03-18 05:47:00,
2013-03-17 22:54:00,47.8,38.5,29.92,North,0,0.0,0.0,70,0.00,,,-99.99,Weather View 32 v60,2013-03-18 05:54:00,
2013-03-17 23:02:00,47.5,38.6,29.93,North,0,0.0,0.0,71,0.00,,,-99.99,Weather View 32 v60,2013-03-18 06:02:00,
2013-03-17 23:07:00,47.4,38.5,29.93,North,0,0.0,0.0,71,0.00,,,-99.99,Weather View 32 v60,2013-03-18 06:07:00,
2013-03-17 23:12:00,47.4,38.5,29.93,North,0,0.0,0.0,71,0.00,,,-99.99,Weather View 32 v60,2013-03-18 06:12:00,
2013-03-17 23:22:00,47.1,38.5,29.93,North,0,0.0,0.0,72,0.00,,,-99.99,Weather View 32 v60,2013-03-18 06:22:00,
2013-03-17 23:27:00,47.0,38.4,29.93,North,0,0.0,0.0,72,0.00,,,-99.99,Weather View 32 v60,2013-03-18 06:27:00,
2013-03-17 23:37:00,46.8,38.6,29.93,North,0,0.0,0.0,73,0.00,,,-99.99,Weather View 32 v60,2013-03-18 06:37:00,
2013-03-17 23:42:00,46.7,38.8,29.93,North,0,0.0,0.0,74,0.00,,,-99.99,Weather View 32 v60,2013-03-18 06:42:00,
2013-03-17 23:47:00,46.7,38.8,29.93,North,0,0.0,0.0,74,0.00,,,-99.99,Weather View 32 v60,2013-03-18 06:47:00,
2013-03-17 23:52:00,46.7,39.2,29.94,North,0,0.0,0.0,75,0.00,,,-99.99,Weather View 32 v60,2013-03-18 06:52:00,
2013-03-17 23:57:00,46.6,39.1,29.93,North,0,0.0,0.0,75,0.00,,,-99.99,Weather View 32 v60,2013-03-18 06:57:00,